This is the latest recevied weather packets stored in our database for station/object KM6YFK-13. If no packets are shown the sender has not sent any weather packets the latest 10 day(s).
| Time | Temp. | Humidity | Pressure | Rain* | Wind** | Luminosity | Snow |
|---|---|---|---|---|---|---|---|
| 1777920208 | 25° C | 50% | 1017.3 hPa | 0 mm | - | 946 W/m² | - |
| 1777919907 | 25° C | 49% | 1017.4 hPa | 0 mm | - | 965 W/m² | - |
| 1777919607 | 25° C | 49% | 1017.4 hPa | 0 mm | - | 957 W/m² | - |
| 1777919307 | 25° C | 49% | 1017.5 hPa | 0 mm | - | 971 W/m² | - |
| 1777919008 | 25° C | 50% | 1017.5 hPa | 0 mm | - | 983 W/m² | - |
| 1777918708 | 25° C | 48% | 1017.5 hPa | 0 mm | - | 987 W/m² | - |
| 1777918407 | 25° C | 48% | 1017.5 hPa | 0 mm | - | 996 W/m² | - |
| 1777918107 | 25° C | 49% | 1017.5 hPa | 0 mm | - | 1005 W/m² | - |
| 1777917808 | 25° C | 47% | 1017.6 hPa | 0 mm | - | 1012 W/m² | - |
| 1777917508 | 25° C | 49% | 1017.6 hPa | 0 mm | - | 1022 W/m² | - |
| 1777917208 | 25° C | 48% | 1017.7 hPa | 0 mm | - | 1037 W/m² | - |
| 1777916908 | 25° C | 49% | 1017.8 hPa | 0 mm | - | 1046 W/m² | - |
| 1777916607 | 25° C | 47% | 1017.8 hPa | 0 mm | - | 1051 W/m² | - |
| 1777916308 | 25° C | 50% | 1017.8 hPa | 0 mm | - | 1054 W/m² | - |
| 1777916008 | 25° C | 49% | 1017.8 hPa | 0 mm | - | 1050 W/m² | - |
| 1777915708 | 25° C | 50% | 1017.8 hPa | 0 mm | - | 1038 W/m² | - |
| 1777915408 | 25° C | 51% | 1017.8 hPa | 0 mm | - | 1036 W/m² | - |
| 1777915108 | 25° C | 49% | 1017.8 hPa | 0 mm | - | 1034 W/m² | - |
| 1777914808 | 25° C | 49% | 1017.9 hPa | 0 mm | - | 1045 W/m² | - |
| 1777914507 | 25° C | 48% | 1017.8 hPa | 0 mm | - | 1044 W/m² | - |
| 1777914207 | 25° C | 50% | 1017.9 hPa | 0 mm | - | 1045 W/m² | - |
| 1777913908 | 25° C | 49% | 1017.9 hPa | 0 mm | - | 1019 W/m² | - |
| 1777913607 | 25° C | 48% | 1017.9 hPa | 0 mm | - | 1023 W/m² | - |
| 1777913308 | 25° C | 49% | 1017.9 hPa | 0 mm | - | 1015 W/m² | - |
| 1777913009 | 25° C | 49% | 1017.9 hPa | 0 mm | - | 1028 W/m² | - |
* Rain latest hour (hover to see other rain measurements)
** Current wind speed in m/s (hover to see current wind gust speed)